N4406F LIBC-LMML

Flight info

Callsign N4406F
Flight time N/A
Altitude 11000
Route CDC L137 NELDA N982 GZO
Aircraft PA34/L-SDFGRY/S

Departure

Time 2026-05-01 15:20
Airport Crotone Sant'Anna Pythagoras Airport (LIBC)

Arrival

Time N/A
Airport Malta International Airport (LMML)
Time Latitude Longitude Altitude Speed Heading
2026-05-01 15:08 38.99585 17.07640 520 ft 0 kts 182°
2026-05-01 15:14 38.99577 17.07659 520 ft 5 kts 84°
2026-05-01 15:14 38.99591 17.07722 521 ft 1 kts 68°
2026-05-01 15:15 38.99554 17.07838 520 ft 12 kts 169°
2026-05-01 15:15 38.99382 17.07940 517 ft 13 kts 129°
2026-05-01 15:16 38.99366 17.07966 517 ft 0 kts 128°
2026-05-01 15:18 38.99337 17.08010 516 ft 11 kts 128°
2026-05-01 15:18 38.99298 17.08089 516 ft 9 kts 83°
2026-05-01 15:19 38.99320 17.08117 516 ft 0 kts 346°
2026-05-01 15:19 38.99321 17.08117 516 ft 0 kts 346°
2026-05-01 15:19 38.99500 17.08073 519 ft 63 kts 348°
2026-05-01 15:20 39.00378 17.07990 1061 ft 85 kts 358°
2026-05-01 15:20 39.00976 17.07821 1283 ft 88 kts 347°
2026-05-01 15:20 39.01548 17.07624 1508 ft 83 kts 350°
2026-05-01 15:21 39.02099 17.07463 1733 ft 79 kts 352°
2026-05-01 15:21 39.02626 17.07320 1962 ft 76 kts 351°
2026-05-01 15:21 39.03140 17.07187 2163 ft 75 kts 352°
2026-05-01 15:21 39.03650 17.07060 2361 ft 74 kts 353°
2026-05-01 15:22 39.04669 17.06807 2758 ft 74 kts 353°
2026-05-01 15:22 39.05187 17.06678 2961 ft 77 kts 354°
2026-05-01 15:22 39.05499 17.06601 3099 ft 77 kts 353°
2026-05-01 15:23 39.06025 17.06470 3333 ft 78 kts 354°
2026-05-01 15:23 39.06557 17.06343 3552 ft 78 kts 354°
2026-05-01 15:23 39.07111 17.06211 3787 ft 82 kts 353°
2026-05-01 15:23 39.07682 17.06072 4034 ft 85 kts 352°
2026-05-01 15:24 39.08229 17.05794 4272 ft 92 kts 324°
2026-05-01 15:24 39.08467 17.04974 4512 ft 109 kts 288°
2026-05-01 15:24 39.08378 17.03971 4772 ft 117 kts 270°
2026-05-01 15:24 39.08124 17.02964 5044 ft 119 kts 262°
2026-05-01 15:25 39.07790 17.01970 5327 ft 119 kts 257°
2026-05-01 15:25 39.07419 17.01012 5602 ft 119 kts 255°
2026-05-01 15:25 39.07034 17.00086 5871 ft 118 kts 254°
2026-05-01 15:25 39.06637 16.99161 6155 ft 117 kts 254°
2026-05-01 15:26 39.06244 16.98257 6426 ft 115 kts 253°
2026-05-01 15:26 39.05856 16.97374 6694 ft 115 kts 252°
2026-05-01 15:26 39.05459 16.96472 6966 ft 115 kts 252°
2026-05-01 15:26 39.05067 16.95587 7233 ft 114 kts 253°
2026-05-01 15:27 39.04672 16.94694 7506 ft 114 kts 252°
2026-05-01 15:27 39.04282 16.93816 7775 ft 114 kts 252°
2026-05-01 15:27 39.03891 16.92935 8033 ft 114 kts 252°
2026-05-01 15:28 39.03696 16.92495 8166 ft 114 kts 251°
2026-05-01 15:28 39.03324 16.91656 8430 ft 114 kts 252°
2026-05-01 15:28 39.02935 16.90780 8707 ft 113 kts 251°
2026-05-01 15:29 39.02079 16.89069 9246 ft 115 kts 246°
2026-05-01 15:29 39.01634 16.88224 9515 ft 114 kts 246°
2026-05-01 15:29 39.00747 16.86491 10010 ft 117 kts 247°
2026-05-01 15:30 38.99991 16.84993 10326 ft 123 kts 247°
2026-05-01 15:31 38.97912 16.80867 11028 ft 133 kts 247°
2026-05-01 15:31 38.96881 16.78822 11163 ft 140 kts 247°
2026-05-01 15:32 38.95825 16.76734 11155 ft 139 kts 246°
2026-05-01 15:32 38.94772 16.74647 11158 ft 139 kts 246°
2026-05-01 15:33 38.93110 16.71347 11154 ft 159 kts 245°
2026-05-01 15:34 38.91253 16.67686 11152 ft 165 kts 245°